This demonstration page uses our WeatherBlox Daily Observations layout. Learn more.

40.92945, -100.16068

Hourly Observations for March 22, 2019

Temp ( °F °C ) Dew Point ( °F °C ) Humidity (%) Winds ( mph kmh ) Pressure ( in mb ) Visibility ( mi km ) Precip ( " mm )
12:15 am 00:15 Clear 43 6 34 1.3 72 72 SSE 6 9 30.18 1022 10 16.09344 0 0
12:35 am 00:35 Clear 45 7.1 34 1.1 66 66 SE 7 11 30.18 1022 10 16.09344 0 0
12:55 am 00:55 Clear 45 7 33 0.6 64 64 SSE 3 6 30.18 1022 10 16.09344 0 0
1:15 am 01:15 Clear 44 6.5 33 0.6 66 66 SSE 5 7 30.18 1022 10 16.09344 0 0
1:35 am 01:35 Clear 43 5.9 33 0.3 68 68 SE 3 6 30.18 1022 10 16.09344 0 0
1:55 am 01:55 Clear 42 5.5 32 0.2 69 69 ESE 3 6 30.18 1022 10 16.09344 0 0
2:15 am 02:15 Hazy 37 3 32 0.1 81 81 E 3 6 30.21 1023 2.5 4.02336 0 0
2:35 am 02:35 Hazy 37 2.8 32 0.1 83 83 Calm 30.21 1023 3 4.828032 0 0
2:55 am 02:55 Clear 38 3.1 32 0.1 81 81 ESE 3 6 30.21 1023 7 11.265408 0 0
3:15 am 03:15 Clear 37 2.7 32 0 83 83 E 5 7 30.21 1023 7 11.265408 0 0
3:35 am 03:35 Hazy 37 2.6 32 0.1 84 84 E 3 6 30.21 1023 3 4.828032 0 0
3:55 am 03:55 Clear with Mist and Fog 36 2.3 32 0 85 85 E 5 7 30.21 1023 4 6.437376 0 0
4:15 am 04:15 Hazy 37 2.6 32 0 83 83 ENE 5 7 30.21 1023 2.5 4.02336 0 0
4:35 am 04:35 Clear 36 2.1 32 -0.2 85 85 E 6 9 30.21 1023 10 16.09344 0 0
4:55 am 04:55 Clear 35 1.6 31 -0.5 86 86 E 3 6 30.24 1024 7 11.265408 0 0
5:15 am 05:15 Clear 36 2.4 32 -0.1 84 84 Calm 30.18 1022 10 16.09344 0 0
5:35 am 05:35 Clear 36 2 31 -0.5 84 84 SSW 7 11 30.18 1022 10 16.09344 0 0
5:55 am 05:55 Clear 37 3 32 -0.1 80 80 Calm 30.18 1022 10 16.09344 0 0
6:15 am 06:15 Clear 34 1.1 30 -1.1 85 85 Calm 30.21 1023 10 16.09344 0 0
6:35 am 06:35 Clear 33 0.6 30 -1 89 89 Calm 30.21 1023 10 16.09344 0 0
6:55 am 06:55 Clear 34 1 31 -0.8 88 88 ENE 5 7 30.21 1023 10 16.09344 0 0
7:15 am 07:15 Clear 33 0.6 30 -1.1 89 89 ENE 6 9 30.21 1023 10 16.09344 0 0
7:35 am 07:35 Clear 33 0.3 29 -1.4 89 89 E 3 6 30.21 1023 10 16.09344 0 0
7:55 am 07:55 Sunny 33 0.8 30 -0.9 89 89 E 3 6 30.24 1024 10 16.09344 0 0
8:15 am 08:15 Sunny 35 1.5 32 -0.2 89 89 E 8 13 30.24 1024 10 16.09344 0 0
8:35 am 08:35 Sunny 38 3.1 33 0.3 82 82 E 6 9 30.21 1023 10 16.09344 0 0
8:55 am 08:55 Sunny 40 4.6 34 0.9 77 77 E 6 9 30.21 1023 10 16.09344 0 0
9:15 am 09:15 Sunny 42 5.5 34 0.9 73 73 ESE 7 11 30.18 1022 10 16.09344 0 0
9:35 am 09:35 Sunny 43 6.2 34 1 70 70 ESE 7 11 30.21 1023 10 16.09344 0 0
9:55 am 09:55 Sunny 44 6.8 34 1.3 68 68 E 10 17 30.21 1023 10 16.09344 0 0
10:15 am 10:15 Sunny 46 7.6 35 1.7 67 67 ESE 8 13 30.21 1023 10 16.09344 0 0
10:35 am 10:35 Sunny 47 8.5 36 2.2 65 65 ESE 9 15 30.18 1022 10 16.09344 0 0
10:55 am 10:55 Partly Cloudy 49 9.3 36 2.3 62 62 ESE 10 17 30.18 1022 10 16.09344 0 0
11:15 am 11:15 Partly Cloudy 51 10.6 37 2.7 58 58 ESE 10 17 30.15 1021 10 16.09344 0 0
11:35 am 11:35 Sunny 52 11.2 38 3.3 59 59 ESE 9 15 30.12 1020 10 16.09344 0 0
11:55 am 11:55 Partly Cloudy 55 12.6 39 3.8 55 55 ESE 13 20 30.12 1020 10 16.09344 0 0
12:15 pm 12:15 Partly Cloudy 56 13.2 38 3.4 52 52 ESE 12 19 30.12 1020 10 16.09344 0 0
12:35 pm 12:35 Sunny 56 13.3 37 2.6 49 49 ESE 14 22 30.12 1020 10 16.09344 0 0
12:55 pm 12:55 Sunny 57 14 38 3.2 48 48 SE 16 26 30.09 1019 10 16.09344 0 0
1:15 pm 13:15 Partly Cloudy 58 14.4 38 3.2 47 47 SE 17 28 30.06 1018 10 16.09344 0 0
1:35 pm 13:35 Mostly Cloudy 59 15.1 37 3 44 44 SSE 20 31 30.06 1018 10 16.09344 0 0
1:55 pm 13:55 Partly Cloudy 59 15 38 3.1 45 45 SSE 18 30 30.06 1018 10 16.09344 0 0
2:15 pm 14:15 Sunny 59 15.2 37 2.6 43 43 SE 16 26 30.06 1018 10 16.09344 0 0
2:35 pm 14:35 Sunny 60 15.3 35 1.8 40 40 SE 20 31 30.06 1018 10 16.09344 0 0
2:55 pm 14:55 Partly Cloudy 59 15.1 35 1.5 40 40 SE 17 28 30.03 1017 10 16.09344 0 0
3:15 pm 15:15 Partly Cloudy 59 14.8 35 1.7 41 41 SE 14 22 30.03 1017 10 16.09344 0 0
3:35 pm 15:35 Mostly Cloudy 58 14.7 35 1.7 42 42 SSE 17 28 30.03 1017 10 16.09344 0 0
3:55 pm 15:55 Cloudy 58 14.7 36 2.3 43 43 SSE 14 22 30 1016 10 16.09344 0 0
4:15 pm 16:15 Cloudy 58 14.5 35 1.5 42 42 SE 12 19 30 1016 10 16.09344 0 0
4:35 pm 16:35 Cloudy 59 14.8 35 1.7 41 41 SE 10 17 30 1016 10 16.09344 0 0
4:55 pm 16:55 Mostly Cloudy 60 15.3 35 1.7 40 40 SE 14 22 30 1016 10 16.09344 0 0
5:15 pm 17:15 Cloudy 59 15.1 35 1.4 40 40 ESE 13 20 30 1016 10 16.09344 0 0
5:35 pm 17:35 Cloudy 59 15.1 35 1.4 40 40 SE 12 19 30 1016 10 16.09344 0 0
5:55 pm 17:55 Cloudy 59 15 35 1.8 41 41 SE 10 17 30 1016 10 16.09344 0 0
6:15 pm 18:15 Cloudy 58 14.6 35 1.4 41 41 SE 13 20 30 1016 10 16.09344 0 0
6:35 pm 18:35 Cloudy 58 14.5 35 1.9 43 43 SE 12 19 30 1016 10 16.09344 0 0
6:55 pm 18:55 Cloudy 58 14.2 36 2.4 45 45 ESE 12 19 30 1016 10 16.09344 0 0
7:15 pm 19:15 Partly Cloudy 56 13.6 36 2.4 47 47 ESE 12 19 30 1016 10 16.09344 0 0
7:35 pm 19:35 Sunny 55 13 37 2.7 50 50 ESE 9 15 30.03 1017 10 16.09344 0 0
7:55 pm 19:55 Mostly Cloudy 55 12.7 37 2.6 51 51 ESE 10 17 30.03 1017 10 16.09344 0 0
8:15 pm 20:15 Cloudy 54 12.4 37 2.8 52 52 SE 8 13 30.03 1017 10 16.09344 0 0
8:35 pm 20:35 Cloudy 53 11.7 37 2.9 55 55 ESE 10 17 30.03 1017 10 16.09344 0 0
8:55 pm 20:55 Cloudy 53 11.5 37 2.5 54 54 SE 13 20 30.03 1017 10 16.09344 0 0
9:15 pm 21:15 Cloudy 53 11.5 37 2.7 55 55 SE 10 17 30.03 1017 10 16.09344 0 0
9:35 pm 21:35 Cloudy with Light Drizzle 52 11.2 38 3.1 58 58 SE 10 17 30.03 1017 10 16.09344 0 0
9:55 pm 21:55 Cloudy with Rain 50 10.1 39 4.1 67 67 SE 8 13 30.06 1018 10 16.09344 0 0
10:15 pm 22:15 Cloudy with Rain 50 9.8 40 4.5 70 70 SE 9 15 30.06 1018 10 16.09344 0 0
10:35 pm 22:35 Cloudy with Light Drizzle 49 9.7 40 4.4 70 70 ESE 9 15 30.06 1018 10 16.09344 0 0
10:55 pm 22:55 Cloudy with Light Rain 48 8.9 41 4.8 76 76 E 8 13 30.06 1018 10 16.09344 0 0
11:15 pm 23:15 Cloudy 47 8.6 40 4.7 77 77 ESE 7 11 30.06 1018 10 16.09344 0 0
11:35 pm 23:35 Cloudy 48 8.7 40 4.5 75 75 E 7 11 30.06 1018 10 16.09344 0 0
11:55 pm 23:55 Cloudy 47 8.3 40 4.5 77 77 E 7 11 30.06 1018 10 16.09344 0 0

Powered by AerisWeather